Baltimore Martin, MD

12:29 AM EDT on May 23, 2017 (GMT -0400)
Martin State

Weather History for KMTN - January, 2013

Change the Weather History Date:

Wednesday, January 23, 2013

  Actual Average Record
Temperature  
Mean Temperature 20 °F -  
Max Temperature 26 °F 37 °F 60 °F (1999)
Min Temperature 14 °F 23 °F 8 °F (2014)
Degree Days  
Heating Degree Days 45    
Moisture  
Dew Point 1 °F    
Average Humidity 45    
Maximum Humidity 67    
Minimum Humidity 29    
Precipitation  
Precipitation 0.00 in - - ()
Sea Level Pressure  
Sea Level Pressure 30.29 in    
Wind  
Wind Speed 6 mph (West)    
Max Wind Speed 14 mph    
Max Gust Speed 22 mph    
Visibility 10 miles    
Events      
Averages and records for this station are not official NWS values.
T = Trace of Precipitation, MM = Missing Value Source: NWS Daily Summary

Daily Weather History Graph

Daily Weather History Graph

Search for Another Location

Airport or City:

Trip Planner

Search our weather history database for the weather conditions in past years. The results will help you decide how hot, cold, wet, or windy it might be!

Date:

Astronomy

Jan. 23, 2013 Rise Set
Actual Time 7:19 AM EST 5:15 PM EST
Civil Twilight 6:50 AM EST 5:44 PM EST
Nautical Twilight 6:18 AM EST 6:17 PM EST
Astronomical Twilight 5:46 AM EST 6:49 PM EST
Moon 2:24 PM EST 4:29 AM EST
Length of Visible Light 10h 54m
Length of Day
9h 56m
Waxing Gibbous, 89% of the Moon is Illuminated
Jan 23
Waxing Gibbous
Jan 26
Full
Feb 3
Last Quarter
Feb 10
New
Feb 17
First Quarter

Hourly Weather History & Observations

Time (EST) Temp. Windchill Dew Point Humidity Pressure Visibility Wind Dir Wind Speed Gust Speed Precip Events Conditions
12:12 AM 17.6 °F - 1.4 °F 49% 30.32 in 10.0 mi Calm Calm - N/A   Clear
12:33 AM 17.6 °F 10.7 °F 1.4 °F 49% 30.32 in 10.0 mi WNW 4.6 mph - N/A   Clear
12:54 AM 15.8 °F 5.1 °F 1.4 °F 53% 30.31 in 10.0 mi West 8.1 mph - N/A   Clear
1:18 AM 17.6 °F 10.7 °F 1.4 °F 49% 30.32 in 10.0 mi West 4.6 mph - N/A   Clear
1:39 AM 15.8 °F 7.2 °F 3.2 °F 58% 30.31 in 10.0 mi West 5.8 mph - N/A   Clear
2:00 AM 17.6 °F 10.7 °F 3.2 °F 53% 30.32 in 10.0 mi West 4.6 mph - N/A   Clear
2:21 AM 15.8 °F 8.6 °F 3.2 °F 58% 30.33 in 10.0 mi West 4.6 mph - N/A   Clear
2:42 AM 15.8 °F 7.2 °F 3.2 °F 58% 30.33 in 10.0 mi West 5.8 mph - N/A   Clear
3:03 AM 14.0 °F 5.1 °F 3.2 °F 62% 30.33 in 10.0 mi West 5.8 mph - N/A   Clear
3:24 AM 14.0 °F 6.5 °F 5.0 °F 67% 30.33 in 10.0 mi West 4.6 mph - N/A   Clear
4:09 AM 15.8 °F 8.6 °F 3.2 °F 58% 30.32 in 10.0 mi WSW 4.6 mph - N/A   Clear
4:30 AM 17.6 °F 9.3 °F 3.2 °F 53% 30.32 in 10.0 mi WSW 5.8 mph - N/A   Clear
4:51 AM 17.6 °F 10.7 °F 1.4 °F 49% 30.32 in 10.0 mi WSW 4.6 mph - N/A   Clear
5:12 AM 17.6 °F 8.2 °F 1.4 °F 49% 30.32 in 10.0 mi West 6.9 mph - N/A   Clear
5:27 AM 17.6 °F 6.4 °F 1.4 °F 49% 30.32 in 10.0 mi WSW 9.2 mph - N/A   Clear
5:55 AM 15.8 °F 3.4 °F -0.4 °F 49% 30.33 in 10.0 mi West 10.4 mph - N/A   Scattered Clouds
7:45 AM 15.8 °F 2.1 °F 1.4 °F 53% 30.35 in 10.0 mi West 12.7 mph - N/A   Partly Cloudy
8:55 AM 19.4 °F 7.2 °F -0.4 °F 42% 30.36 in 10.0 mi West 11.5 mph 20.7 mph N/A   Partly Cloudy
9:50 AM 19.4 °F 7.2 °F -2.2 °F 39% 30.36 in 10.0 mi West 11.5 mph 20.7 mph N/A   Partly Cloudy
10:45 AM 21.2 °F 8.9 °F -4.0 °F 33% 30.36 in 10.0 mi West 12.7 mph 21.9 mph N/A   Partly Cloudy
11:45 AM 21.2 °F 10.1 °F -2.2 °F 36% 30.32 in 10.0 mi West 10.4 mph 20.7 mph N/A   Scattered Clouds
12:45 PM 24.8 °F 14.0 °F -2.2 °F 31% 30.28 in 10.0 mi West 11.5 mph 21.9 mph N/A   Scattered Clouds
1:45 PM 24.8 °F 12.9 °F -2.2 °F 31% 30.26 in 10.0 mi WSW 13.8 mph 20.7 mph N/A   Scattered Clouds
2:45 PM 24.8 °F 15.3 °F -2.2 °F 31% 30.25 in 10.0 mi WSW 9.2 mph 17.3 mph N/A   Scattered Clouds
3:45 PM 26.6 °F 15.2 °F -2.2 °F 29% 30.24 in 10.0 mi West 13.8 mph 20.7 mph N/A   Mostly Cloudy
4:45 PM 24.8 °F 13.4 °F -2.2 °F 31% 30.24 in 10.0 mi West 12.7 mph - N/A   Scattered Clouds
5:45 PM 24.8 °F 16.9 °F -0.4 °F 34% 30.24 in 10.0 mi WNW 6.9 mph - N/A   Mostly Cloudy
6:45 PM 24.8 °F 19.1 °F -0.4 °F 34% 30.23 in 10.0 mi NW 4.6 mph - N/A   Overcast
7:50 PM 24.8 °F - -0.4 °F 34% 30.21 in 10.0 mi Calm Calm - N/A   Overcast
8:50 PM 24.8 °F - 3.2 °F 40% 30.22 in 10.0 mi Calm Calm - N/A   Overcast
10:12 PM 23.0 °F 18.4 °F 1.4 °F 39% 30.22 in 10.0 mi North 3.5 mph - N/A   Clear
10:57 PM 23.0 °F 17.0 °F 1.4 °F 39% 30.21 in 10.0 mi North 4.6 mph - N/A   Scattered Clouds
11:18 PM 23.0 °F 17.0 °F 1.4 °F 39% 30.21 in 10.0 mi NNE 4.6 mph - N/A   Scattered Clouds
11:39 PM 23.0 °F 18.4 °F 1.4 °F 39% 30.20 in 10.0 mi NE 3.5 mph - N/A   Scattered Clouds